Location: St. Louis
(38.6270°N, 90.1994°W)
Time: 14:46:53
(UTC-06:00)

S-56A Canister/Altair - Pass Details

Date: 05 December 2021
Orbit: 633 x 2499 km, 38.9° (Epoch: 19 January)

Event Time Altitude Azimuth Distance (km) Brightness Sun altitude
Rises 00:27:00 0° 253° (WSW) 5,273 - -72.1°
Reaches altitude 10° 00:30:56 10° 253° (WSW) 3,991 - -71.7°
Maximum altitude 00:40:49 82° 168° (SSE) 1,236 - -70.6°
Drops below altitude 10° 00:47:11 10° 81° (E) 2,644 - -69.9°
Sets 00:49:19 0° 81° (E) 3,420 - -69.6°
